Regional Weather Roundup
Issued by NWS Sioux Falls, SD

Home | Current Version | Previous Version | Graphics & Text | Print | Product List | Glossary On
Versions: 1 2 3 4 5 6 7 8 9 10 11 12 13 14 15 16 17 18 19 20 21 22 23 24 25 26 27 28 29 30 31 32 33 34 35 36 37 38 39 40 41 42 43 44 45 46 47 48 49 50
000
ASUS43 KFSD 222302
RWRFSD

WEATHER ROUNDUP FOR SE SOUTH DAKOTA/SW MINNESOTA/NW IOWA
NATIONAL WEATHER SERVICE SIOUX FALLS SD
500 PM CST SUN JAN 22 2017

NOTE: "FAIR" INDICATES FEW OR NO CLOUDS BELOW 12,000 FEET WITH NO
SIGNIFICANT WEATHER AND OR OBSTRUCTIONS TO VISIBILITY.


SDZ038>040-050-052>070-230000-
SOUTHEAST SOUTH DAKOTA

CITY           SKY/WX    TMP DP  RH WIND       PRES   REMARKS
BROOKINGS      CLOUDY    29  27  92 NW14      29.79R WCI  18
CHAMBERLAIN    CLOUDY    32  28  87 NW17G24   29.88R WCI  21
HURON          CLOUDY    30  27  88 NW15      29.85S WCI  19
MADISON        CLOUDY    28  28 100 NW15        N/A  WCI  17
MITCHELL       CLOUDY    32  28  85 NW17      29.87R WCI  21
SIOUX FALLS    CLOUDY    30  28  92 NW16G22   29.83R FOG     WCI  19
WINNER         FAIR      34  25  69 N12       29.88R WCI  25
YANKTON        CLEAR     32  27  80 NW13      29.85R WCI  22
$$

MNZ071-072-080-081-089-090-097-098-230000-
SOUTHWEST MINNESOTA

CITY           SKY/WX    TMP DP  RH WIND       PRES   REMARKS
FAIRMONT       CLOUDY    35  34  96 NW13      29.77R FOG     WCI  26
JACKSON        CLOUDY    34  32  93 NW10      29.77R FOG     WCI  26
LUVERNE        CLOUDY    30  27  86 NW12      29.81R FOG     WCI  21
MARSHALL       CLOUDY    31  29  92 NW13      29.80R FOG     WCI  21
MONTEVIDEO     CLOUDY    32  32 100 NW7       29.81R FOG     WCI  26
PIPESTONE      CLOUDY    30  28  93 NW10      29.78S FOG     WCI  21
REDWOOD FALLS  CLOUDY    33  30  88 NW13      29.79R FOG     WCI  24
TRACY          CLOUDY    32  31  96 NW12      29.80R FOG     WCI  23
WINDOM         CLOUDY    36  34  93 NW8       29.77S FOG
WORTHINGTON    CLOUDY    30  30 100 NW14      29.78S FOG     WCI  19
$$

IAZ001>003-012>014-020>022-031-032-NEZ013-014-SDZ071-230000-
NORTHWEST IOWA

CITY           SKY/WX    TMP DP  RH WIND       PRES   REMARKS
CHEROKEE       CLOUDY    33  32  97 NW8       29.82R FOG     WCI  26
DENISON        CLOUDY    36  34  93 NW6       29.79R
ESTHERVILLE    CLOUDY    35  35 100 NW13      29.76R WCI  26
LE MARS        CLOUDY    32  30  93 NW12G20   29.84R WCI  23
ORANGE CITY    CLOUDY    30  30 100 NW14      29.81R FOG     WCI  20
SHELDON        CLOUDY    32  32 100 NW15      29.79R FOG     WCI  22
SIOUX CITY     CLEAR     36  31  82 NW10      29.83R
SPENCER          N/A    N/A N/A N/A MISG      29.78R
STORM LAKE     CLOUDY    36  34  93 NW12      29.79R
$$

ABBREVIATIONS USED IN REMARKS
   TC - TEMPERATURE IN CELSIUS
  WCI - WIND CHILL INDEX
   HX - HEAT INDEX
  VSB - VISIBILITY




USA.gov is the U.S. government's official web portal to all federal, state and local government web resources and services.